Charles City, IA

2:30 AM CDT on August 28, 2016 (GMT -0500)
Charles City Municipal | | Change Station
Active Advisory: Special Statement

Elev 1125 ft 43.07 °N, 92.61 °W | Updated -298 second ago

Fog
Fog
61 °F
Feels Like 61 °F
N
4
Wind Variable Wind from ESE

Today
High -- | Low -- °F
--% Chance of Precip.
Yesterday
High -- | Low -- °F
Precip. -- in
Pressure 30.13 in
Visibility 0.2 miles
Clouds Mostly Cloudy 100 ft
Dew Point 61 °F
Humidity 100%
Rainfall 0.00 in
Snow Depth Not available.
6:31 AM 7:51 PM
Waning Crescent, 18% visible
METAR KCCY 280735Z AUTO 12003KT M1/4SM FG BKN001 16/16 A3013 RMK AO2
Pressure 30.13 in
Visibility 0.2 miles
Clouds Mostly Cloudy 100 ft
Dew Point 61 °F
Humidity 100%
Rainfall 0.00 in
Snow Depth Not available.
6:31 AM 7:51 PM
Waning Crescent, 18% visible
METAR KCCY 280735Z AUTO 12003KT M1/4SM FG BKN001 16/16 A3013 RMK AO2

10-Day Weather Forecast

Almanac

Astronomy

Aug. 28, 2016 Rise Set
Actual Time
Civil Twilight
Nautical Twilight
Astronomical Twilight
Moon
Length of Visible Light
Length of Day
Tomorrow will be .
, % of the Moon is Illuminated

Today's Extremes

State Highs State Lows

Community

WunderPhotos

Upload Photos

1,935,533 photos uploaded!

WunderBlog® & News

Nearby

Air Quality

  Air Quality AQ Index Pollutant
Not available.

Snow Depth

Station Depth Elevation

Earthquake Activity

City Distance Mag. Time & Date
Minimum magnitude displayed is 2.5.

Coastal Water Temperatures

Place Temperature

Stations

Nearby Weather Stations

Station Location Temp. Windchill Dew Point Humidity Wind Precip. Elev Updated Type
                   

Watches & Warnings

Special Statement
Issued: 12:22 AM CDT Aug. 28, 2016 – National Weather Service

... Patchy dense fog overnight...

Be prepared for patchy dense fog early this morning. Visibility
could dip to near zero in spots. If traveling, slow down and drive
accordingly to the conditions.


Das

1222 am CDT sun Aug 28 2016

... Patchy dense fog overnight...

Be prepared for patchy dense fog early this morning. Visibility
could dip to near zero in spots. If traveling, slow down and drive
accordingly to the conditions.


Das